HK6RM-19 Weather Reports


Display with metric or nautical units.
time (UTC)temp
F
wind
direction
speed
MPH
gust
MPH
rain 1hr
in
rain 24hr
in
rain mn
in
humidity
%
barometer
mb
20260504140356 63 120 3.0 0.0 0.00 0.00 0.00 10 1016.0
20260504130755 59 0 1.0 0.0 0.00 0.00 0.00 10 1016.0
20260504110145 52 300 8.0 0.0 0.00 0.00 0.00 82 1017.0
20260504100543 52 300 8.0 0.0 0.00 0.00 0.00 82 1016.0
20260504081337 52 300 8.0 0.0 0.00 0.00 0.00 82 1016.0
20260504070333 52 300 8.0 0.0 0.01 0.00 0.00 82 1016.0
20260504045720 53 300 8.0 0.0 0.09 0.00 0.00 82 1017.0
20260504044320 53 300 8.0 0.0 0.08 0.00 0.00 82 1017.0
20260504042919 53 300 8.0 0.0 0.01 0.00 0.00 82 1018.0
20260504041517 53 300 8.0 0.0 0.01 0.00 0.00 82 1018.0
20260504040117 53 300 8.0 0.0 0.02 0.00 0.00 82 1018.0
20260504034716 53 300 8.0 0.0 0.05 0.00 0.00 82 1018.0
20260504033311 53 300 8.0 0.0 0.03 0.00 0.00 82 1018.0
20260504031909 53 300 8.0 0.0 0.00 0.00 0.00 82 1018.0
20260504030509 53 300 8.0 0.0 0.00 0.00 0.00 82 1018.0
20260504025103 53 300 8.0 0.0 0.00 0.00 0.00 82 1018.0
20260504023703 53 300 8.0 0.0 0.00 0.00 0.00 82 1018.0
20260504022258 53 300 8.0 0.0 0.01 0.00 0.00 82 1017.0
20260504020857 54 300 8.0 0.0 0.00 0.00 0.00 82 1017.0
20260504015457 54 300 8.0 0.0 0.00 0.00 0.00 82 1017.0
20260504014055 54 300 8.0 0.0 0.00 0.00 0.00 81 1017.0
20260504012654 54 300 8.0 0.0 0.00 0.00 0.00 80 1016.0
20260504011253 54 300 8.0 0.0 0.00 0.00 0.00 78 1016.0
20260504005853 54 300 8.0 0.0 0.00 0.00 0.00 78 1016.0
20260504004452 54 300 8.0 0.0 0.00 0.00 0.00 78 1015.0
20260504003052 55 300 8.0 0.0 0.00 0.00 0.00 77 1015.0
20260504001651 55 300 8.0 0.0 0.00 0.00 0.00 77 1014.0
20260504000250 56 300 8.0 0.0 0.00 0.00 0.00 77 1014.0
20260503234850 57 300 8.0 0.0 0.00 0.00 0.00 77 1014.0
20260503233449 58 300 8.0 0.0 0.00 0.00 0.00 77 1014.0
20260503232049 58 300 8.0 0.0 0.00 0.00 0.00 77 1013.0
20260503230648 59 300 8.0 0.0 0.00 0.00 0.00 77 1013.0
20260503225248 59 300 8.0 0.0 0.00 0.00 0.00 77 1013.0
20260503223848 60 300 8.0 0.0 0.00 0.00 0.00 77 1013.0
20260503222447 60 300 8.0 0.0 0.00 0.00 0.00 77 1012.0
20260503221047 60 300 8.0 0.0 0.00 0.00 0.00 77 1012.0
20260503215644 60 300 8.0 0.0 0.00 0.00 0.00 77 1012.0
20260503214244 61 300 8.0 0.0 0.00 0.00 0.00 77 1012.0
20260503212838 61 300 8.0 0.0 0.00 0.00 0.00 77 1011.0
20260503211438 62 300 8.0 0.0 0.00 0.00 0.00 77 1011.0
20260503210037 63 300 8.0 0.0 0.00 0.00 0.00 77 1011.0
20260503204636 64 300 8.0 0.0 0.00 0.00 0.00 76 1011.0
20260503203235 64 300 8.0 0.0 0.00 0.00 0.00 75 1011.0
20260503201835 64 300 8.0 0.0 0.00 0.00 0.00 75 1011.0
20260503200433 65 300 8.0 0.0 0.00 0.00 0.00 74 1011.0
20260503195031 66 300 8.0 0.0 0.00 0.00 0.00 74 1011.0
20260503193627 66 300 8.0 0.0 0.00 0.00 0.00 75 1012.0
20260503192226 66 300 8.0 0.0 0.00 0.00 0.00 77 1012.0
20260503190826 66 300 8.0 0.0 0.00 0.00 0.00 77 1012.0
20260503185425 66 300 8.0 0.0 0.00 0.00 0.00 77 1012.0
20260503184025 66 300 8.0 0.0 0.00 0.00 0.00 77 1012.0
20260503182623 66 300 8.0 0.0 0.00 0.00 0.00 79 1013.0
20260503181222 66 300 8.0 0.0 0.00 0.00 0.00 79 1013.0
20260503175822 66 300 8.0 0.0 0.00 0.00 0.00 79 1013.0
20260503174420 66 300 8.0 0.0 0.00 0.00 0.00 80 1014.0
20260503173020 66 300 8.0 0.0 0.00 0.00 0.00 80 1014.0
20260503171618 66 300 8.0 0.0 0.00 0.00 0.00 80 1015.0
20260503170217 66 300 8.0 0.0 0.00 0.00 0.00 81 1015.0
20260503151011 63 0 1.0 0.0 0.00 0.00 0.00 77 1016.0